Weather History for Elmira, NY

Change the Weather History Date:

Wednesday, October 30, 2013

  Actual Average Record
Temperature  
Mean Temperature 48 °F -  
Max Temperature 62 °F 53 °F 78 °F (1950)
Min Temperature 35 °F 31 °F 19 °F (1969)
Degree Days  
Heating Degree Days 16    
Moisture  
Dew Point 34 °F    
Average Humidity 71    
Maximum Humidity 87    
Minimum Humidity 39    
Precipitation  
Precipitation 0.00 in - - ()
Sea Level Pressure  
Sea Level Pressure 30.22 in    
Wind  
Wind Speed 1 mph (ENE)    
Max Wind Speed 6 mph    
Max Gust Speed -    
Visibility 10 miles    
Events      
Averages and records for this station are not official NWS values.
T = Trace of Precipitation, MM = Missing Value Source: NWS Daily Summary

Daily Weather History Graph

Daily Weather History Graph

Search for Another Location

Airport:

Trip Planner

Search our weather history database for the weather conditions in past years. The results will help you decide how hot, cold, wet, or windy it might be!

Date:

Astronomy

Oct. 30, 2013 Rise Set
Actual Time 7:38 AM EDT 6:03 PM EDT
Civil Twilight 7:09 AM EDT 6:32 PM EDT
Nautical Twilight 6:36 AM EDT 7:05 PM EDT
Astronomical Twilight 6:03 AM EDT 7:37 PM EDT
Moon 3:20 AM EDT (10/30) 3:51 PM EDT (10/30)
Length of Visible Light 11h 23m
Length of Day
10h 25m
Waning Crescent, 17% of the Moon is Illuminated
Oct 30
Waning Crescent
Nov 3
New
Nov 10
First Quarter
Nov 17
Full
Nov 25
Last Quarter

Hourly Weather History & Observations

Time (EDT) Temp. Windchill Dew Point Humidity Pressure Visibility Wind Dir Wind Speed Gust Speed Precip Events Conditions
12:53 AM 36.0 °F - 30.0 °F 79% 30.32 in 10.0 mi Calm Calm - N/A   Overcast
1:53 AM 37.0 °F - 30.9 °F 79% 30.30 in 10.0 mi Calm Calm - 0.00 in   Overcast
2:53 AM 37.0 °F - 32.0 °F 82% 30.27 in 10.0 mi Calm Calm - 0.00 in   Overcast
3:53 AM 37.0 °F - 33.1 °F 86% 30.27 in 10.0 mi Calm Calm - N/A   Overcast
4:53 AM 37.0 °F - 33.1 °F 86% 30.27 in 10.0 mi Calm Calm - N/A   Overcast
5:53 AM 37.9 °F - 33.1 °F 83% 30.27 in 10.0 mi Calm Calm - N/A   Overcast
6:53 AM 37.0 °F - 32.0 °F 82% 30.26 in 10.0 mi Calm Calm - N/A   Mostly Cloudy
7:53 AM 35.1 °F - 30.9 °F 85% 30.27 in 10.0 mi Calm Calm - N/A   Mostly Cloudy
8:53 AM 36.0 °F - 32.0 °F 86% 30.29 in 10.0 mi Calm Calm - N/A   Clear
9:53 AM 41.0 °F - 33.1 °F 73% 30.28 in 10.0 mi Calm Calm - N/A   Clear
10:53 AM 46.0 °F - 33.1 °F 61% 30.27 in 10.0 mi Calm Calm - N/A   Clear
11:53 AM 52.0 °F - 37.0 °F 57% 30.26 in 10.0 mi SSW 3.5 mph - N/A   Clear
12:53 PM 55.9 °F - 37.0 °F 49% 30.22 in 10.0 mi South 4.6 mph - N/A   Clear
1:53 PM 59.0 °F - 37.0 °F 44% 30.19 in 10.0 mi Variable 4.6 mph - N/A   Clear
2:53 PM 60.1 °F - 37.0 °F 42% 30.16 in 10.0 mi Calm Calm - N/A   Clear
3:53 PM 62.1 °F - 37.0 °F 39% 30.14 in 10.0 mi West 4.6 mph - N/A   Clear
4:53 PM 60.1 °F - 37.9 °F 44% 30.14 in 10.0 mi East 5.8 mph - N/A   Clear
5:53 PM 52.0 °F - 37.9 °F 59% 30.16 in 10.0 mi NNE 3.5 mph - N/A   Clear
6:53 PM 50.0 °F - 37.9 °F 63% 30.17 in 10.0 mi ENE 5.8 mph - N/A   Clear
7:53 PM 44.1 °F 41.5 °F 37.0 °F 76% 30.18 in 10.0 mi North 4.6 mph - N/A   Clear
8:53 PM 42.1 °F - 36.0 °F 79% 30.19 in 10.0 mi Calm Calm - N/A   Clear
9:53 PM 37.9 °F - 34.0 °F 86% 30.18 in 10.0 mi Calm Calm - N/A   Unknown
9:55 PM 37.4 °F - 33.8 °F 87% 30.16 in 10.0 mi Calm Calm - N/A   Clear
10:53 PM 39.0 °F - 34.0 °F 82% 30.19 in 10.0 mi Calm Calm - N/A   Clear
11:53 PM 37.0 °F - 33.1 °F 86% 30.17 in 10.0 mi Calm Calm - N/A   Clear